Regional Weather Roundup
Issued by NWS

Home | Current Version | Previous Version | Text Only | Print | Product List | Glossary On
Versions: 1 2 3 4 5 6 7 8 9 10 11 12 13 14 15 16 17 18 19 20 21 22 23 24 25 26 27 28 29 30 31 32 33 34 35 36 37 38 39 40 41 42 43 44 45 46 47 48 49 50
427
ASUS45 KPSR 301910
RWRAZ

ARIZONA HOURLY REGIONAL WEATHER ROUNDUP
NATIONAL WEATHER SERVICE PHOENIX AZ
1200 PM MST THU MAR 30 2017

NOTE: FAIR INDICATES FEW OR NO CLOUDS BELOW 12,000 FEET WITH NO
SIGNIFICANT WEATHER AND/OR OBSTRUCTIONS TO VISIBILITY.

AZZ001>003-036-302000-
NORTHWEST ARIZONA

CITY           SKY/WX    TMP DP  RH WIND       PRES   REMARKS
BULLHEAD CITY  SUNNY     84  25  11 S28       29.65F
KINGMAN        SUNNY     75  -1   5 SW36G44   29.76F
$$

AZZ004>008-015-016-018-302000-
NORTH CENTRAL ARIZONA

CITY           SKY/WX    TMP DP  RH WIND       PRES   REMARKS
GRAND CANYON   SUNNY     60  24  25 SW23G40   29.85F
WILLIAMS       SUNNY     57  23  26 S24G37    29.91F
PRESCOTT       SUNNY     65  24  21 S17G31    29.91F
FLAGSTAFF      MOSUNNY   55  23  28 SW24G35   29.94F
PAYSON         SUNNY     63  23  22 SW12      30.00F
PAGE           SUNNY     67  26  21 N8        29.70F
$$

AZZ009>014-017-302000-
NORTHEAST ARIZONA

CITY           SKY/WX    TMP DP  RH WIND       PRES   REMARKS
WINSLOW        SUNNY     73  16  11 SW29G38   29.86F
SAINT JOHNS    SUNNY     71  16  12 SW22G31   29.90F
WINDOW ROCK    MOSUNNY   62  21  20 SW13G22   29.92F
SHOW LOW       SUNNY     59  14  17 SW25G32   29.98F
$$

AZZ023-302000-
GREATER PHOENIX AREA

CITY           SKY/WX    TMP DP  RH WIND       PRES   REMARKS
PHOENIX        MOSUNNY   80  26  13 CALM      29.84F
BUCKEYE        SUNNY     77  27  15 S7        29.85F
GLENDALE       MOSUNNY   79  37  22 S6        29.86F
LUKE AFB       SUNNY     79  27  14 S7        29.84F
DEER VALLEY    SUNNY     78  23  13 SW9       29.85F
SCOTTSDALE     SUNNY     78  25  14 E5        29.87F
MESA-FALCON    MOSUNNY  N/A N/A N/A S9        29.83F
MESA-GATEWAY   SUNNY     79  25  13 S7        29.87F
CHANDLER       SUNNY     81  21  11 SW9       29.86F
$$

AZZ027-028-302000-
SOUTHWEST MARICOPA COUNTY AND PINAL COUNTY

CITY           SKY/WX    TMP DP  RH WIND       PRES   REMARKS
CASA GRANDE    SUNNY     81  22  11 VRB3      29.86F
GILA BEND      FAIR      85  17   8 W14G21    29.82F
$$

AZZ503-504-507>509-302000-
SOUTHEAST ARIZONA

CITY           SKY/WX    TMP DP  RH WIND       PRES   REMARKS
TUCSON         SUNNY     79  24  13 NE5       29.93F
DAVIS-MONTHAN  SUNNY     77  23  13 VRB7      29.92F
RYAN FIELD     SUNNY     79  21  11 N3        29.92F
NOGALES        SUNNY     79  11   7 SW14      29.99F
SIERRA VISTA   SUNNY     76   8   7 W12G18    30.01F
DOUGLAS        SUNNY     75  19  12 S12G20    29.99F
SAFFORD        SUNNY     74  21  13 CALM      29.91F
$$

AZZ020-021-025-026-031-302000-
SOUTHWEST ARIZONA

CITY           SKY/WX    TMP DP  RH WIND       PRES   REMARKS
YUMA           SUNNY     83  40  21 S13       29.81F
$$

CAZ031-033-041-043-047-048-061-302000-
SOUTHERN CALIFORNIA

CITY           SKY/WX    TMP DP  RH WIND       PRES   REMARKS
DOWNTOWN L.A.  SUNNY     74  52  46 VRB3      29.91F
L.A. AIRPORT   MOSUNNY   66  57  72 W13       29.93F
SAN DIEGO      MOSUNNY   65  55  70 S14       29.96F
BURBANK        SUNNY     72  42  34 SE10      29.90F
ONTARIO        MOSUNNY   74  36  25 SW10G18   29.91F
RIVERSIDE      MOSUNNY   74  40  29 VRB3      29.91F
PALM SPRINGS   SUNNY     86  37  17 S10       29.75F
EL CENTRO NAS  MOSUNNY   89  18   7 SW8       29.76F
IMPERIAL       SUNNY     88  36  15 W12       29.75F
BLYTHE         SUNNY     87  21   9 S22G35    29.73F
NEEDLES        SUNNY     88  27  11 SW20G37   29.69F
$$

NVZ020-UTZ003-302000-
SOUTHERN NEVADA-UTAH

CITY           SKY/WX    TMP DP  RH WIND       PRES   REMARKS
LAS VEGAS      PTSUNNY   77  28  16 SW32G43   29.57F
SALT LAKE CITY LGT RAIN  50  43  77 N9        29.66F
$$

NMZ009-TXZ055-302000-
NEW MEXICO-WEST TEXAS

CITY           SKY/WX    TMP DP  RH WIND       PRES   REMARKS
ALBUQUERQUE    MOSUNNY   61  25  25 S6        29.92F
EL PASO        MOSUNNY   74  23  15 W10G21    29.95F
$$


........................KEY........................
SKY/WX - SKY CONDITION/WEATHER
TMP    - TEMPERATURE IN FAHRENHEIT
DP     - DEW POINT IN FAHRENHEIT
RH     - RELATIVE HUMIDITY IN PERCENT
WIND   - DIRECTION AND SPEED IN MILES PER HOUR (MPH)
VRB    - VARIABLE WIND DIRECTION
PRES   - MEAN SEA LEVEL PRESSURE IN INCHES OF MERCURY
         F - FALLING PRESSURE   R - RISING PRESSURE
         S - STEADY PRESSURE
VSB    - VISIBILITY IN MILES
HX     - HEAT INDEX IN FAHRENHEIT
WCI    - WIND CHILL INDEX IN FAHRENHEIT
TC     - TEMPERATURE IN CELSIUS WHICH IS ALSO KNOWN AS
         TEMPERATURE IN CENTIGRADE
AFB    - AIR FORCE BASE
         LUKE AFB IS LUKE AIR FORCE BASE
         DAVIS-MONTHAN IS DAVIS-MONTHAN AIR FORCE BASE
NAS    - NAVAL AIR STATION
         EL CENTRO NAS IS EL CENTRO NAVAL AIR STATION
N/A    - NOT AVAILABLE





USA.gov is the U.S. government's official web portal to all federal, state and local government web resources and services.